Dewpoint
-0 -2 -4 -5 -6 -5 -6 -8 -11 -14 -15 -6 3 5 5 5 4 5 7 7 -4 -4 -4 -4 -5 -8 -12 -4 -7 -10 -10 -8 -11 -8 -8 -8 -8 -7 -6 -7 -7 -7 -8 -9 -11 -12 -13
-2 -1 -2 -3 -4 -6 -5 -3 -6 -10 -13 -15 -9 -1 4 5 4 1 4 6 5 -4 -3 -3 -4 -7 -2 -4 -9 -10 -10 -9 -8 -8 -8 -8 -8 -7 -7 -8 -7 -8 -10 -12 -12 -13 -14
-1 -1 -1 -1 -3 -4 -5 -5 -4 -7 -11 -13 -13 -9 1 4 5 3 4 6 7 -4 -3 -3 -3 -5 0 -4 -9 -10 -9 -8 -8 -8 -8 -8 -8 -7 -8 -8 -9 -11 -11 -12 -13 -13 -14
-1 -1 -0 -1 -3 -3 -4 -5 -5 -4 -4 -9 -11 -14 -7 2 3 4 4 5 7 5 -4 -3 -2 -3 -0 -4 -9 -11 -8 -8 -8 -8 -8 -7 -7 -8 -8 -10 -11 -10 -10 -9 -12 -13 -14
-1 -1 -2 -2 -2 -3 -4 -5 -5 -5 -4 -4 -6 -11 -13 -8 1 3 4 4 5 6 1 -3 -2 1 -2 -4 -9 -10 -8 -8 -8 -8 -8 -8 -8 -8 -9 -8 -7 -8 -6 -6 -9 -13 -14
-5 -2 -3 -3 -3 -3 -3 -5 -6 -6 -6 -5 -5 -6 -12 -16 -10 1 2 3 4 5 4 0 -0 -2 -3 -5 -9 -10 -9 -8 -8 -7 -7 -6 -7 -7 -8 -6 -3 -5 -5 -6 -7 -11 -11
-5 -7 -5 -5 -5 -5 -4 -5 -6 -6 -6 -6 -6 -6 -8 -11 -17 -6 2 4 5 6 5 -3 -6 -8 -5 -8 -9 -9 -8 -8 -8 -7 -5 -7 -6 -4 -6 -6 -6 -7 -7 -7 -8 -10 -9
-3 -4 -5 -7 -5 -6 -6 -5 -5 -5 -6 -6 -6 -6 -7 -9 -16 -13 0 6 6 7 4 -1 -5 -5 -6 -8 -9 -9 -8 -7 -6 -4 -7 -5 -4 -7 -8 -9 -8 -7 -7 -7 -8 -9 -8
-2 -2 -4 -5 -7 -7 -7 -6 -6 -5 -6 -6 -6 -5 -6 -9 -16 -1 5 5 5 5 4 -1 -4 -5 -6 -8 -8 -8 -8 -7 -6 -5 -5 -4 -5 -8 -8 -7 -7 -7 -7 -6 -8 -9 -10
-2 -2 -3 -4 -5 -7 -7 -6 -6 -6 -6 -5 -6 -5 -6 -10 -1 1 3 6 4 6 6 0 -5 -6 -6 -7 -7 -8 -8 -7 -6 -5 -6 -4 -7 -6 -6 -6 -7 -5 -7 -8 -8 -7 -5
-5 -4 -3 -4 -4 -5 -7 -7 -5 -4 -5 -5 -6 -5 -6 -9 -0 -2 3 3 4 6 10 -1 -5 -8 -7 -7 -7 -8 -8 -7 -6 -5 -5 -2 -5 -6 -5 -5 -8 -5 -8 -7 -7 -5 -3
-4 -5 -4 -3 -4 -4 -5 -6 -5 -4 -4 -4 -6 -6 -5 -1 -1 1 -0 -1 3 6 9 -2 -7 -8 -7 -8 -6 -7 -8 -7 -7 -6 -7 -6 -9 -8 -6 -8 -8 -7 -6 -6 -5 -4 5
-4 -5 -4 -4 -4 -4 -5 -5 -4 -4 -3 -3 -5 -6 -5 -1 -1 0 -1 1 5 8 0 -3 -6 -8 -7 -6 -4 -6 -5 -4 -3 -1 -2 -6 -7 -7 -7 -5 -7 -6 -3 7 7 7 9
-4 -4 -6 -4 -4 -4 -4 -4 -4 -4 -3 -3 -4 -6 -1 1 -1 0 -1 3 5 3 1 -7 -7 -8 -7 -6 -4 -4 -4 -2 -4 -3 -1 -1 -0 -6 -7 -6 -4 -4 -3 8 10 4 1
-5 -4 -6 -4 -4 -4 -4 -4 -3 -3 -3 -4 -5 -1 0 1 1 1 -3 3 4 0 0 -4 -7 -6 -6 -7 -4 -3 -2 -2 -3 -3 8 11 1 -4 -6 -6 -5 -4 -2 -4 -0 -2 0
-6 -4 -5 -6 -4 -5 -4 -4 -3 -3 -3 -3 -1 -0 -2 -0 1 0 -1 -1 2 0 2 2 -3 -5 -4 -4 -2 -1 -0 -2 -3 -4 -1 8 8 -4 -4 -4 -4 -2 -4 2 -0 9 10
-6 -6 -5 -6 -7 -7 -4 -4 -3 -3 -4 -3 -0 -1 0 -1 0 0 2 -1 -4 -1 1 3 -2 -4 -5 -4 -3 -1 1 -2 -3 -3 -3 2 6 -1 -3 -2 4 2 3 6 8 7 11
-7 -8 -5 -5 -7 -7 -6 -4 -3 -3 -4 -4 0 -1 0 -4 1 0 1 -3 1 1 2 3 -4 -3 -4 -3 -3 -2 -1 -1 -4 -5 -3 -0 4 5 0 -3 -4 -2 6 6 9 8 7
-6 -7 -6 -5 -6 -6 -6 -4 -4 -4 -4 -2 0 -2 -1 1 1 0 -1 -1 -4 2 3 2 -3 -4 -4 -3 1 -2 -2 -2 -4 -5 -3 -2 4 4 0 -2 -3 -2 -2 3 5 6 7
-8 -7 -7 -6 -6 -6 -5 -5 -5 -5 -4 -3 -0 0 -2 -0 -4 -4 -1 1 2 -2 3 3 2 -3 -3 -2 -2 -1 0 -1 -4 -6 -5 -4 0 2 3 -1 -0 1 -2 -1 -1 7 8
-7 -5 -7 -6 -7 -7 -5 -5 -5 -5 -4 -2 -1 -1 -4 -1 -2 -3 -1 0 3 3 3 3 -1 -3 -3 2 -1 -0 -1 -1 -5 -4 -6 -4 2 -2 -5 -8 -6 -3 -3 -3 2 3 6
-6 -8 -8 -7 -6 -5 -5 -6 -6 -5 -3 -1 -1 -2 -4 -4 -6 -6 -3 -0 2 1 3 4 -1 -4 -4 0 -1 0 -0 -2 -2 -5 -4 -5 -2 -5 -4 -6 -8 -7 -8 -6 -3 -2 1
-6 -8 -7 -7 -5 -5 -4 -4 -5 -5 -4 -2 -1 -2 0 -3 -4 -4 -2 -3 3 2 3 3 4 -1 -2 -2 -4 -4 -3 -4 -4 -4 -2 -3 -1 -2 -1 -3 -4 1 2 -6 -6 -6 -4
-7 -6 -7 -6 -6 -5 -5 -5 -5 -5 -4 -2 -1 -1 -0 -1 -5 -5 -6 -5 -3 -1 4 2 3 -1 -1 -2 -2 -3 -3 -3 -4 -5 -5 -3 -2 -2 -1 -2 5 -2 -10 -7 -6 -7 -7
-7 -6 -6 -6 -5 -6 -6 -6 -6 -5 -5 -3 -2 -1 -1 1 -5 -5 -6 -7 -7 -3 2 3 3 2 -1 -3 -1 -1 -0 -1 -2 -3 -4 -4 -3 0 1 0 -3 -6 -9 -8 -6 -6 -8
-8 -6 -6 -5 -6 -6 -5 -5 -5 -5 -5 -4 -2 -2 -0 -1 -3 -6 -6 -6 -2 2 3 3 3 1 -1 -1 -2 0 1 -2 -2 -3 -5 -5 -4 1 -0 0 -3 -5 -11 -10 -9 -4 -11
-6 -8 -8 -6 -6 -6 -5 -5 -5 -5 -5 -4 -2 -2 -1 -1 -3 -4 -3 -0 -0 -0 1 3 4 -0 -1 0 2 1 0 -3 1 -1 -2 -1 -1 6 2 5 -0 -8 -10 -8 -2 1 -7
-6 -9 -8 -6 -6 -5 -5 -4 -4 -4 -4 -4 -3 -2 -1 -1 -2 -3 -3 -3 1 -0 0 0 4 -1 -0 4 3 3 1 -0 -1 -3 -2 -1 0 1 -0 3 7 -8 -8 -5 -1 -5 -6
-8 -10 -7 -6 -6 -6 -5 -4 -4 -3 -3 -4 -3 -2 -2 -0 -3 -1 -2 -1 0 0 -1 -1 1 2 2 4 4 2 2 1 0 2 -4 0 -0 2 0 3 -1 -8 -5 -6 -6 -6 -6
Wind_Speed
9 10 10 10 11 13 12 12 12 12 12 14 17 18 16 16 17 16 17 16 16 15 15 16 15 15 11 7 5 11 10 17 6 3 1 3 4 5 7 19 20 19 19 18 17 15 16
5 7 8 9 11 11 11 12 14 15 15 14 12 16 18 17 17 20 20 18 17 15 14 14 14 13 9 11 6 9 6 11 11 4 3 1 7 18 10 3 3 17 20 18 16 15 15
4 5 7 7 8 10 12 13 13 13 14 16 17 13 13 15 16 17 18 18 17 15 14 13 12 13 11 10 5 5 5 6 7 11 18 17 10 2 11 19 24 24 19 15 12 13 11
5 4 5 8 8 10 10 11 13 14 15 16 17 18 14 15 16 16 17 15 15 14 14 13 11 9 9 8 5 1 1 6 9 13 17 15 16 15 8 26 17 13 12 10 10 11 8
7 7 7 8 8 9 10 12 13 14 16 16 17 18 18 17 20 20 17 19 16 16 13 12 8 6 11 7 6 7 7 5 13 16 17 17 14 14 26 17 13 11 8 6 10 14 11
9 8 8 8 9 9 10 12 13 14 16 17 18 19 19 19 19 22 20 17 17 16 11 8 11 8 17 13 10 9 10 13 10 11 9 5 6 9 10 11 6 10 9 9 10 13 9
9 9 9 10 11 11 10 11 12 13 15 16 18 20 22 22 20 19 18 15 9 9 14 18 8 18 3 8 9 9 17 13 11 9 6 6 8 7 13 4 9 2 5 9 7 11 9
8 8 9 10 10 11 12 11 12 12 14 15 16 18 20 22 20 18 11 5 7 11 13 19 29 15 10 13 12 15 18 14 14 11 6 6 3 10 6 3 1 3 6 6 4 5 7
6 8 9 9 10 11 11 11 11 11 13 14 16 17 18 19 18 10 5 8 12 12 10 20 25 31 20 17 19 22 20 21 14 10 11 3 11 14 7 5 5 4 5 7 5 8 9
8 8 8 10 10 10 10 10 11 12 13 14 15 16 18 19 7 13 6 9 12 5 6 15 23 27 30 18 17 19 23 15 7 12 8 4 5 12 8 4 6 6 1 3 4 6 3
11 11 8 10 10 10 10 9 10 11 12 13 14 15 16 16 12 11 16 13 10 5 6 11 28 16 29 28 17 19 21 13 14 9 6 6 11 12 12 7 5 6 7 4 4 7 5
11 10 10 10 11 10 10 10 11 11 12 12 13 14 15 10 11 9 15 16 9 4 9 10 16 24 27 32 21 27 21 13 6 8 4 9 7 4 3 5 2 11 7 4 3 4 4
8 11 9 11 11 10 10 10 11 11 11 11 12 13 13 10 9 12 15 6 4 6 7 10 21 24 30 21 19 22 21 18 11 10 11 10 8 6 10 10 10 10 10 1 2 3 5
10 11 8 11 11 10 10 10 11 12 12 12 12 13 13 10 8 9 7 2 8 8 23 4 17 22 29 26 23 22 21 20 21 12 12 11 5 11 12 8 6 11 11 4 4 3 3
10 10 10 10 11 11 10 10 10 11 12 13 14 11 12 10 6 5 4 4 5 11 13 17 14 20 27 25 18 20 21 20 15 13 7 6 6 5 5 4 5 8 6 3 4 3 3
11 11 12 12 13 11 11 10 10 11 11 11 10 13 14 9 5 7 6 7 10 9 14 18 21 18 26 29 20 21 20 20 16 11 5 6 5 8 5 5 5 4 7 4 4 3 4
15 14 13 13 14 14 11 10 9 10 10 11 9 7 4 3 6 10 6 8 17 18 12 11 22 16 24 25 22 22 19 8 16 14 8 12 5 6 6 11 9 6 5 4 4 1 2
18 16 15 14 14 14 12 10 9 9 10 10 7 5 4 0 4 6 7 15 6 15 11 18 13 13 18 21 21 21 22 15 19 23 13 7 6 4 15 3 7 15 7 6 4 5 2
18 17 14 13 14 13 13 10 11 10 10 8 5 14 11 6 5 8 14 16 23 6 10 12 12 15 12 14 16 21 18 3 22 21 17 13 9 7 5 6 9 10 17 9 4 3 5
17 13 13 16 15 14 12 12 11 10 10 9 5 3 6 9 15 15 14 13 17 20 13 23 15 25 12 13 11 14 10 6 14 21 7 15 8 9 7 2 11 10 20 18 11 5 6
16 18 17 15 19 17 14 14 13 12 11 10 5 8 10 5 8 11 8 6 19 10 9 30 15 15 13 11 12 12 15 11 13 7 9 10 6 11 5 4 7 9 15 22 18 12 9
21 24 19 17 17 16 17 16 16 14 13 15 5 8 10 17 18 18 7 8 17 7 2 15 16 13 15 7 11 15 15 17 12 14 13 9 4 12 9 6 6 7 11 19 21 20 19
24 20 18 19 19 18 18 18 17 18 15 12 17 24 12 12 15 12 9 9 12 23 7 28 19 12 13 3 21 10 19 18 9 16 15 12 7 9 5 5 4 8 18 21 19 16 21
23 22 23 20 22 20 21 21 20 21 21 20 14 10 11 11 12 12 16 11 14 14 8 16 23 7 4 4 15 16 11 10 18 17 15 11 11 5 4 6 4 4 1 12 20 16 16
23 23 23 22 23 24 24 24 23 24 24 25 23 17 9 7 17 16 18 13 15 17 7 13 28 9 8 11 13 12 10 10 7 7 10 12 8 4 4 9 9 10 6 4 12 14 18
25 25 24 24 25 26 26 26 26 26 26 27 26 25 17 6 12 16 18 17 12 7 4 8 18 11 11 7 6 7 6 9 8 9 6 8 4 4 5 4 3 5 5 3 6 4 2
27 29 26 26 26 28 29 29 30 29 29 29 27 24 25 8 27 25 15 9 2 4 5 4 5 6 3 6 7 6 4 6 9 12 10 9 6 5 4 2 6 6 8 9 5 4 1
30 30 27 27 29 31 32 32 32 32 33 31 33 28 26 13 26 23 18 17 6 1 2 15 4 7 5 6 6 3 4 6 5 11 13 9 9 5 6 5 5 10 9 4 4 3 1
34 28 28 29 31 33 33 34 35 34 35 33 34 29 30 24 17 12 20 17 11 11 9 7 10 8 2 3 2 4 4 4 8 7 4 6 6 5 8 5 2 14 3 8 3 3 5
Wind_Direction
48 44 35 31 28 23 15 13 11 3 339 297 276 277 287 296 296 291 289 301 297 300 308 318 324 334 347 306 291 335 348 6 14 26 24 28 71 76 88 96 89 105 108 115 121 124 117
17 30 25 19 17 21 18 10 3 359 1 356 301 285 275 286 290 294 285 286 297 294 301 310 319 326 325 279 305 332 345 12 29 10 280 243 93 112 98 70 78 129 122 118 119 122 138
7 20 359 9 9 9 8 9 3 360 357 355 354 313 288 276 292 294 289 276 289 293 295 302 315 327 296 257 318 328 351 16 57 83 92 108 116 273 108 94 122 128 124 123 130 136 142
345 338 352 349 351 2 1 1 2 359 353 351 350 348 307 286 282 289 290 285 278 294 291 294 305 319 274 266 235 250 123 76 94 99 103 100 99 105 107 126 136 138 145 154 154 159 156
344 324 327 327 339 344 348 351 352 352 350 348 346 343 342 303 284 281 287 287 289 285 295 283 300 274 262 252 204 189 153 141 122 112 110 88 81 106 134 139 145 198 189 199 165 192 160
336 328 314 320 323 328 337 334 338 339 341 341 340 340 339 337 300 280 284 293 290 282 290 266 254 268 240 229 199 181 167 160 152 141 129 113 114 151 167 193 315 187 200 163 173 188 210
339 337 322 314 308 313 318 330 332 330 331 333 334 336 339 339 332 296 291 330 276 240 235 220 221 220 194 186 178 178 173 181 193 225 214 159 166 184 186 292 300 215 189 181 144 152 205
341 332 326 314 317 307 306 312 319 325 326 328 331 332 330 332 326 321 313 307 31 333 291 244 238 239 223 198 185 186 178 196 202 211 168 188 233 128 134 188 236 212 181 156 107 170 222
326 331 321 322 315 306 312 305 313 320 323 324 330 333 329 329 336 13 299 297 289 327 258 257 234 224 216 212 211 190 188 206 209 201 209 314 125 127 172 168 201 201 212 155 310 177 232
291 298 321 320 318 311 308 313 311 311 317 320 326 332 334 334 350 332 297 281 287 278 260 244 219 226 212 203 221 204 191 193 225 199 186 123 152 170 179 192 266 191 356 149 176 205 283
321 296 302 315 313 313 309 305 311 309 310 315 320 326 337 352 333 336 306 288 333 208 238 233 214 212 196 196 163 185 184 201 217 176 203 119 165 188 209 228 211 83 146 189 229 245 309
337 329 288 311 313 310 309 306 306 307 307 311 316 319 333 353 328 318 315 298 320 191 231 228 183 192 185 200 190 157 173 211 181 166 187 127 132 176 158 135 190 136 153 171 229 254 255
323 322 288 303 311 308 304 302 302 307 309 311 310 314 320 314 311 319 336 333 242 233 200 211 177 187 191 190 181 178 170 175 172 161 163 152 149 123 157 147 152 177 180 177 239 206 235
305 315 287 289 304 306 301 304 301 302 305 308 307 308 306 301 289 299 347 85 237 234 240 84 196 208 199 187 187 190 181 190 217 200 160 178 178 171 184 205 187 210 204 175 255 229 119
292 297 288 287 288 302 297 299 305 304 303 307 310 310 296 289 286 249 256 217 244 235 292 239 211 207 206 188 192 193 194 198 190 201 155 162 138 98 199 192 269 178 219 272 242 269 269
298 289 289 281 282 286 297 291 301 298 301 311 307 299 286 260 246 204 235 250 231 265 291 320 229 204 204 187 208 193 196 200 181 180 148 171 114 198 151 214 220 278 143 179 216 217 243
312 288 284 280 277 276 286 286 284 295 299 305 305 290 251 284 196 212 241 256 240 283 269 283 242 212 221 194 196 196 193 182 149 173 161 141 131 155 169 213 188 181 176 46 93 187 238
313 300 274 281 275 282 267 277 272 281 289 294 278 264 243 310 236 226 244 256 289 287 268 281 279 273 240 185 200 204 213 185 166 170 177 164 112 143 215 82 224 208 170 159 172 192 194
302 303 279 277 272 281 255 261 265 269 274 282 271 273 264 246 267 271 291 277 251 264 260 270 271 244 234 216 201 218 207 100 170 188 171 171 148 164 191 198 212 224 210 168 117 116 199
303 297 282 274 273 269 252 254 256 254 257 257 289 284 244 226 251 272 287 282 247 223 276 268 273 253 227 205 191 195 135 147 181 201 134 196 173 200 221 59 147 198 205 185 187 176 174
288 285 287 273 268 263 263 251 250 245 240 238 237 253 270 274 259 285 270 285 281 221 207 273 254 227 209 200 179 193 158 150 185 179 193 192 196 214 213 146 180 186 203 199 204 206 203
284 287 283 266 255 254 256 246 244 242 229 232 239 249 267 273 276 281 272 282 285 254 234 235 251 238 241 179 199 192 170 179 173 178 180 201 197 198 207 193 235 235 231 212 212 219 236
285 288 285 257 250 258 254 247 237 235 226 234 243 254 292 279 284 285 279 270 335 332 276 255 290 273 254 306 231 229 186 184 174 169 185 182 163 181 208 202 252 276 237 227 220 221 224
282 281 289 251 252 258 256 254 243 237 230 235 245 252 250 258 261 271 286 285 291 308 286 298 309 211 227 145 99 103 130 154 155 169 173 190 190 180 141 152 233 234 305 224 226 221 218
283 273 281 251 253 255 254 252 248 241 234 239 239 238 251 266 260 271 273 284 297 302 268 257 277 311 232 190 131 117 128 120 122 168 188 188 186 178 184 210 293 212 203 178 196 228 223
278 275 267 252 254 252 252 250 247 242 237 239 242 236 242 261 261 265 283 299 309 321 279 236 282 287 214 245 216 179 180 158 161 151 205 202 200 189 194 237 246 76 107 166 183 238 52
270 281 257 254 256 255 256 255 251 246 240 236 239 236 235 243 259 272 281 312 304 332 290 268 270 238 283 232 201 204 159 152 162 173 177 171 182 183 219 269 289 117 133 156 205 88 344
272 270 257 260 261 261 262 259 253 247 240 234 238 229 226 246 257 268 271 280 242 213 299 322 256 219 244 227 198 224 159 196 178 166 175 170 173 185 210 207 270 144 148 222 51 75 0
279 257 260 264 264 265 262 260 255 243 237 231 236 230 229 235 247 272 253 273 273 257 278 290 284 282 278 284 219 210 170 163 164 180 215 200 192 185 196 209 140 181 58 165 74 78 87
Height
1566 1564 1564 1564 1563 1562 1561 1560 1558 1557 1554 1553 1554 1554 1554 1553 1552 1551 1550 1550 1548 1548 1547 1546 1544 1542 1540 1541 1537 1534 1531 1530 1526 1525 1526 1525 1523 1523 1524 1529 1531 1534 1542 1546 1549 1551 1554
1566 1565 1564 1564 1563 1563 1562 1561 1559 1557 1555 1553 1552 1551 1551 1551 1550 1549 1549 1548 1548 1547 1546 1545 1544 1543 1543 1541 1536 1535 1533 1532 1530 1527 1526 1525 1526 1528 1530 1532 1530 1543 1546 1550 1554 1557 1558
1565 1565 1564 1564 1563 1562 1562 1561 1559 1558 1555 1553 1551 1550 1549 1548 1548 1547 1547 1547 1546 1545 1545 1545 1543 1542 1541 1537 1535 1535 1534 1533 1532 1529 1528 1528 1529 1531 1535 1538 1541 1546 1548 1554 1557 1559 1561
1565 1565 1564 1564 1563 1562 1562 1561 1559 1557 1556 1554 1551 1549 1547 1546 1546 1545 1544 1544 1544 1543 1543 1543 1543 1542 1539 1534 1534 1534 1535 1534 1533 1530 1530 1531 1532 1534 1536 1540 1546 1545 1547 1548 1558 1560 1564
1564 1564 1563 1563 1562 1562 1562 1560 1559 1557 1556 1554 1552 1549 1547 1545 1543 1542 1541 1541 1541 1541 1541 1542 1544 1544 1538 1532 1532 1533 1535 1536 1534 1533 1531 1532 1535 1537 1542 1538 1543 1544 1533 1538 1557 1558 1561
1563 1562 1562 1561 1562 1562 1561 1560 1558 1557 1556 1554 1552 1549 1547 1544 1541 1539 1540 1540 1539 1539 1540 1540 1542 1545 1532 1529 1530 1531 1532 1537 1535 1535 1533 1533 1536 1537 1537 1532 1525 1530 1528 1536 1544 1555 1558
1561 1561 1561 1560 1561 1561 1560 1560 1559 1557 1555 1554 1552 1548 1546 1543 1540 1538 1539 1541 1540 1537 1534 1530 1527 1528 1526 1528 1529 1529 1530 1535 1535 1533 1525 1529 1527 1531 1533 1531 1531 1524 1528 1534 1536 1548 1553
1562 1561 1561 1559 1559 1559 1559 1559 1558 1557 1555 1554 1552 1549 1545 1542 1540 1539 1541 1544 1543 1547 1534 1526 1525 1525 1525 1526 1527 1528 1531 1534 1532 1524 1527 1527 1520 1523 1533 1535 1533 1531 1531 1535 1545 1552 1554
1561 1560 1559 1558 1558 1559 1558 1558 1557 1556 1554 1553 1551 1549 1546 1543 1541 1540 1543 1542 1542 1540 1535 1521 1518 1518 1521 1524 1520 1522 1527 1527 1525 1520 1522 1518 1521 1531 1535 1536 1536 1533 1534 1541 1542 1551 1553
1558 1558 1558 1557 1557 1557 1557 1556 1555 1554 1553 1552 1550 1548 1546 1543 1544 1542 1542 1540 1541 1541 1532 1510 1508 1506 1513 1517 1515 1515 1521 1525 1524 1518 1521 1524 1529 1533 1536 1536 1537 1538 1541 1541 1547 1550 1541
1556 1556 1557 1557 1557 1556 1556 1555 1554 1553 1552 1551 1549 1547 1545 1543 1544 1545 1542 1539 1541 1542 1532 1499 1491 1498 1502 1507 1503 1513 1518 1522 1519 1517 1522 1528 1531 1532 1536 1535 1538 1537 1544 1546 1547 1548 1550
1555 1555 1555 1555 1555 1555 1554 1553 1553 1552 1551 1550 1548 1547 1545 1547 1546 1545 1540 1539 1541 1543 1516 1483 1480 1486 1495 1499 1501 1505 1515 1520 1517 1521 1519 1528 1529 1530 1530 1540 1540 1544 1547 1548 1548 1546 1559
1553 1553 1554 1554 1554 1553 1552 1552 1552 1551 1549 1548 1547 1547 1545 1545 1546 1544 1541 1542 1541 1522 1498 1484 1477 1481 1480 1488 1496 1504 1505 1513 1512 1523 1524 1530 1531 1536 1539 1542 1544 1542 1546 1561 1565 1563 1560
1551 1552 1552 1552 1552 1552 1552 1551 1550 1549 1548 1547 1545 1545 1544 1544 1544 1544 1544 1546 1533 1507 1489 1473 1476 1480 1478 1480 1491 1498 1501 1505 1504 1504 1512 1523 1541 1535 1536 1535 1539 1540 1539 1558 1566 1544 1528
1549 1550 1549 1549 1550 1550 1550 1549 1549 1548 1547 1546 1544 1544 1543 1543 1541 1543 1544 1541 1517 1506 1489 1480 1472 1477 1479 1476 1486 1491 1491 1494 1501 1501 1517 1523 1533 1539 1539 1538 1538 1537 1545 1537 1550 1549 1550
1546 1546 1547 1547 1548 1548 1548 1548 1548 1547 1546 1545 1545 1543 1540 1541 1539 1542 1541 1531 1515 1508 1504 1497 1482 1473 1476 1472 1481 1486 1488 1487 1498 1506 1513 1531 1548 1540 1544 1544 1543 1537 1536 1550 1548 1566 1560
1543 1544 1544 1545 1545 1546 1546 1547 1546 1546 1545 1545 1544 1542 1537 1537 1537 1539 1534 1521 1512 1507 1508 1500 1477 1468 1467 1467 1478 1485 1483 1489 1496 1508 1512 1517 1529 1545 1545 1540 1542 1545 1546 1563 1565 1574 1554
1540 1540 1541 1542 1543 1543 1544 1545 1545 1544 1545 1543 1545 1541 1536 1535 1539 1532 1525 1519 1512 1506 1503 1502 1478 1471 1466 1464 1477 1478 1476 1484 1496 1505 1507 1511 1527 1548 1539 1534 1531 1535 1548 1560 1558 1567 1570
1537 1537 1537 1538 1539 1540 1541 1543 1544 1544 1544 1544 1543 1538 1535 1535 1532 1526 1522 1517 1511 1511 1508 1500 1486 1476 1470 1465 1478 1473 1476 1491 1496 1502 1499 1508 1522 1538 1540 1538 1535 1532 1529 1544 1562 1563 1563
1534 1534 1534 1534 1536 1537 1538 1540 1541 1543 1543 1545 1545 1538 1531 1530 1527 1523 1520 1518 1507 1507 1508 1506 1495 1481 1473 1468 1471 1472 1482 1497 1500 1500 1502 1505 1507 1510 1511 1502 1513 1530 1524 1531 1542 1556 1552
1530 1530 1530 1531 1531 1533 1535 1537 1539 1540 1542 1544 1543 1536 1529 1524 1520 1519 1520 1521 1513 1504 1506 1498 1487 1476 1469 1475 1476 1476 1485 1499 1503 1503 1505 1502 1515 1505 1501 1505 1506 1512 1516 1519 1536 1534 1535
1525 1525 1525 1525 1527 1529 1531 1533 1535 1538 1540 1541 1540 1536 1529 1524 1520 1516 1515 1513 1505 1501 1507 1496 1484 1477 1473 1477 1475 1476 1482 1489 1491 1502 1501 1501 1503 1502 1511 1509 1509 1510 1508 1508 1514 1523 1523
1520 1519 1520 1520 1523 1525 1527 1529 1531 1534 1536 1535 1535 1535 1535 1525 1519 1513 1510 1508 1507 1508 1503 1501 1495 1483 1480 1475 1472 1469 1480 1484 1485 1492 1497 1501 1505 1506 1507 1507 1510 1517 1508 1498 1501 1506 1513
1514 1514 1515 1515 1518 1519 1522 1524 1526 1529 1531 1533 1533 1534 1534 1522 1517 1511 1508 1506 1506 1511 1506 1499 1496 1486 1489 1484 1480 1479 1482 1485 1489 1493 1498 1501 1501 1502 1503 1512 1528 1487 1490 1488 1492 1496 1501
1508 1508 1508 1509 1512 1514 1516 1519 1520 1523 1526 1527 1530 1531 1531 1519 1514 1512 1508 1505 1503 1503 1504 1502 1497 1496 1490 1485 1483 1484 1491 1492 1496 1498 1499 1500 1499 1506 1510 1507 1487 1482 1489 1489 1490 1492 1492
1501 1502 1502 1503 1505 1507 1509 1511 1514 1516 1520 1522 1523 1527 1527 1524 1514 1511 1507 1506 1503 1505 1503 1498 1496 1491 1489 1485 1476 1477 1483 1478 1492 1500 1502 1499 1500 1506 1508 1505 1496 1486 1488 1491 1491 1494 1484
1494 1494 1494 1496 1497 1499 1501 1504 1506 1509 1513 1516 1517 1522 1523 1518 1513 1515 1511 1511 1511 1513 1508 1496 1494 1493 1492 1479 1477 1473 1473 1472 1488 1490 1501 1503 1506 1513 1511 1511 1492 1483 1491 1494 1497 1494 1490
1486 1486 1487 1488 1489 1491 1492 1495 1497 1500 1504 1509 1510 1515 1517 1515 1512 1511 1511 1510 1511 1509 1511 1502 1498 1495 1494 1485 1476 1478 1473 1480 1479 1479 1488 1493 1500 1504 1504 1507 1508 1487 1494 1493 1492 1492 1491
1476 1477 1478 1479 1480 1481 1483 1485 1487 1491 1496 1502 1504 1509 1512 1512 1508 1507 1506 1508 1506 1505 1511 1509 1501 1492 1491 1486 1480 1474 1474 1479 1477 1488 1487 1491 1484 1490 1489 1490 1486 1488 1489 1491 1493 1493 1492